,,,PA_Meas_PMT16A,,PR_Meas_QMR101_102,,RH_Meas_QMH101,,SR_Meas_QMS101,,TA_Meas_QMH101,,GenWind,,GenWind,
date,time,status,PA,status,PR,status,RH,status,SR,status,TA,status,DirAvg,status,SpdAvg,
2011-01-01, 00:00:04,VALID,998.486,VALID,0,VALID,90.7849,VALID,0,VALID,22.5696,VALID,52,VALID,0.6,
2011-01-01, 00:01:04,VALID,998.461,VALID,0,VALID,90.8077,VALID,0,VALID,22.5501,VALID,52,VALID,0.764844,
2011-01-01, 00:02:04,VALID,998.458,VALID,0,VALID,90.8459,VALID,0,VALID,22.5696,VALID,52,VALID,0.616797,
2011-01-01, 00:03:04,VALID,998.439,VALID,0,VALID,90.884,VALID,0,VALID,22.5501,VALID,52,VALID,0.585547,
2011-01-01, 00:04:04,VALID,998.432,VALID,0,VALID,90.8917,VALID,0,VALID,22.5501,VALID,52,VALID,0.690625,
2011-01-01, 00:05:04,VALID,998.405,VALID,0,VALID,90.9069,VALID,0,VALID,22.5306,VALID,52,VALID,0.480859,
2011-01-01, 00:06:04,VALID,998.394,VALID,0,VALID,90.9451,VALID,0,VALID,22.5501,VALID,52,VALID,0.540234,
2011-01-01, 00:07:04,VALID,998.368,VALID,0,VALID,90.9451,VALID,0,VALID,22.5306,VALID,52,VALID,0.495703,
2011-01-01, 00:08:04,VALID,998.36,VALID,0,VALID,90.9909,VALID,0,VALID,22.5306,VALID,52,VALID,0.278906,
2011-01-01, 00:09:04,VALID,998.353,VALID,0,VALID,91.029,VALID,0,VALID,22.5306,VALID,52,VALID,0.380859,
2011-01-01, 00:10:04,VALID,998.323,VALID,0,VALID,91.0214,VALID,0,VALID,22.5306,VALID,52,VALID,0.484375,
2011-01-01, 00:11:04,VALID,998.306,VALID,0,VALID,91.0137,VALID,0,VALID,22.5111,VALID,52,VALID,0.385938,
2011-01-01, 00:12:04,VALID,998.303,VALID,0,VALID,91.0443,VALID,0,VALID,22.5094,VALID,52,VALID,0.339844,
2011-01-01, 00:13:04,VALID,998.268,VALID,0,VALID,91.0519,VALID,0,VALID,22.5501,VALID,52,VALID,0.4,
2011-01-01, 00:14:04,VALID,998.249,VALID,0,VALID,91.0519,VALID,0,VALID,22.5094,VALID,52,VALID,0.549219,
2011-01-01, 00:15:04,VALID,998.208,VALID,0,VALID,91.0443,VALID,0,VALID,22.5306,VALID,52,VALID,0.399609,
2011-01-01, 00:16:04,VALID,998.189,VALID,0,VALID,91.0443,VALID,0,VALID,22.5501,VALID,52,VALID,0.482422,
2011-01-01, 00:17:04,VALID,998.156,VALID,0,VALID,90.9985,VALID,0,VALID,22.5501,VALID,52,VALID,0.470313,
2011-01-01, 00:18:04,VALID,998.115,VALID,0,VALID,90.9374,VALID,0,VALID,22.5501,VALID,52,VALID,0.517187,
2011-01-01, 00:19:04,VALID,998.084,VALID,0,VALID,90.8917,VALID,0,VALID,22.5696,VALID,52,VALID,0.555859,
2011-01-01, 00:20:04,VALID,998.085,VALID,0,VALID,90.823,VALID,0,VALID,22.5696,VALID,77,VALID,0.500391,
2011-01-01, 00:21:04,VALID,998.053,VALID,0,VALID,90.7849,VALID,0,VALID,22.5696,VALID,77,VALID,0.357812,
2011-01-01, 00:22:04,VALID,998.041,VALID,0,VALID,90.6857,VALID,0,VALID,22.5696,VALID,103,VALID,0.629687,
2011-01-01, 00:23:04,VALID,998.018,VALID,0,VALID,90.617,VALID,0,VALID,22.5892,VALID,103,VALID,0.448438,
2011-01-01, 00:24:04,VALID,997.989,VALID,0,VALID,90.5254,VALID,0,VALID,22.5892,VALID,103,VALID,0.390625,
2011-01-01, 00:25:04,VALID,997.983,VALID,0,VALID,90.5178,VALID,0,VALID,22.5696,VALID,103,VALID,0.388672,
2011-01-01, 00:26:04,VALID,997.956,VALID,0,VALID,90.5102,VALID,0,VALID,22.5696,VALID,103,VALID,0.403516,
2011-01-01, 00:27:04,VALID,997.937,VALID,0,VALID,90.5178,VALID,0,VALID,22.5696,VALID,103,VALID,0.198047,
2011-01-01, 00:28:04,VALID,997.926,VALID,0,VALID,90.5178,VALID,0,VALID,22.5696,VALID,103,VALID,0.317578,
2011-01-01, 00:29:04,VALID,997.911,VALID,0,VALID,90.5636,VALID,0,VALID,22.5696,VALID,103,VALID,0.206641,
2011-01-01, 00:30:04,VALID,997.922,VALID,0,VALID,90.6094,VALID,0,VALID,22.6104,VALID,103,VALID,0.212109,
2011-01-01, 00:31:04,VALID,997.906,VALID,0,VALID,90.7009,VALID,0,VALID,22.5892,VALID,103,VALID,0.210156,
2011-01-01, 00:32:04,VALID,997.869,VALID,0,VALID,90.7543,VALID,0,VALID,22.5892,VALID,103,VALID,0.265625,
2011-01-01, 00:33:04,VALID,997.832,VALID,0,VALID,90.8001,VALID,0,VALID,22.5892,VALID,103,VALID,0.335156,
2011-01-01, 00:34:04,VALID,997.826,VALID,0,VALID,90.8306,VALID,0,VALID,22.5892,VALID,103,VALID,0.395703,
2011-01-01, 00:35:04,VALID,997.804,VALID,0,VALID,90.8688,VALID,0,VALID,22.5892,VALID,103,VALID,0.356641,
2011-01-01, 00:36:04,VALID,997.779,VALID,0,VALID,90.8993,VALID,0,VALID,22.5892,VALID,103,VALID,0.174609,
2011-01-01, 00:37:04,VALID,997.739,VALID,0,VALID,90.9069,VALID,0,VALID,22.5892,VALID,103,VALID,0.230078,
2011-01-01, 00:38:04,VALID,997.721,VALID,0,VALID,90.9146,VALID,0,VALID,22.5696,VALID,103,VALID,0.267578,
2011-01-01, 00:39:04,VALID,997.686,VALID,0,VALID,90.9146,VALID,0,VALID,22.5696,VALID,103,VALID,0.133984,
2011-01-01, 00:40:04,VALID,997.666,VALID,0,VALID,90.9527,VALID,0,VALID,22.5696,VALID,103,VALID,0.13125,
2011-01-01, 00:41:04,VALID,997.648,VALID,0,VALID,90.9374,VALID,0,VALID,22.5714,VALID,103,VALID,0.167578,
2011-01-01, 00:42:04,VALID,997.669,VALID,0,VALID,90.9527,VALID,0,VALID,22.5696,VALID,103,VALID,0.0792969,
2011-01-01, 00:43:04,VALID,997.633,VALID,0,VALID,90.9527,VALID,0,VALID,22.5696,VALID,103,VALID,0,
2011-01-01, 00:44:04,VALID,997.597,VALID,0,VALID,90.9832,VALID,0,VALID,22.5696,VALID,103,VALID,0.133203,
2011-01-01, 00:45:04,VALID,997.582,VALID,0,VALID,90.9985,VALID,0,VALID,22.5501,VALID,103,VALID,0.155078,
2011-01-01, 00:46:04,VALID,997.568,VALID,0,VALID,91.0824,VALID,0,VALID,22.5696,VALID,103,VALID,0.153125,
2011-01-01, 00:47:04,VALID,997.565,VALID,0,VALID,91.1053,VALID,0,VALID,22.5696,VALID,103,VALID,0.0433594,
2011-01-01, 00:48:04,VALID,997.54,VALID,0,VALID,91.1587,VALID,0,VALID,22.5696,VALID,103,VALID,0.228125,
2011-01-01, 00:49:04,VALID,997.497,VALID,0,VALID,91.174,VALID,0,VALID,22.5696,VALID,103,VALID,0.295312,
2011-01-01, 00:50:04,VALID,997.516,VALID,0,VALID,91.174,VALID,0,VALID,22.5714,VALID,103,VALID,0.25625,
2011-01-01, 00:51:04,VALID,997.483,VALID,0,VALID,91.1892,VALID,0,VALID,22.5501,VALID,103,VALID,0.266797,
2011-01-01, 00:52:04,VALID,997.468,VALID,0,VALID,91.1892,VALID,0,VALID,22.5501,VALID,103,VALID,0.502344,
2011-01-01, 00:53:04,VALID,997.45,VALID,0,VALID,91.1892,VALID,0,VALID,22.5696,VALID,103,VALID,0.436328,
2011-01-01, 00:54:04,VALID,997.422,VALID,0,VALID,91.174,VALID,0,VALID,22.5501,VALID,103,VALID,0.530859,
2011-01-01, 00:55:04,VALID,997.393,VALID,0,VALID,91.1892,VALID,0,VALID,22.5696,VALID,103,VALID,0.513672,
2011-01-01, 00:56:04,VALID,997.367,VALID,0,VALID,91.174,VALID,0,VALID,22.5696,VALID,103,VALID,0.430469,
2011-01-01, 00:57:04,VALID,997.333,VALID,0,VALID,91.1434,VALID,0,VALID,22.5892,VALID,103,VALID,0.538281,
2011-01-01, 00:58:04,VALID,997.317,VALID,0,VALID,91.1053,VALID,0,VALID,22.5892,VALID,103,VALID,0.280078,
2011-01-01, 00:59:04,VALID,997.307,VALID,0,VALID,91.0671,VALID,0,VALID,22.5874,VALID,103,VALID,0.55625,
2011-01-01, 01:00:04,VALID,997.298,VALID,0,VALID,90.9909,VALID,0,VALID,22.5696,VALID,104,VALID,0.314453,
2011-01-01, 01:01:04,VALID,997.237,VALID,0,VALID,90.8611,VALID,0,VALID,22.5696,VALID,104,VALID,0.564453,
2011-01-01, 01:02:04,VALID,997.242,VALID,0,VALID,90.7314,VALID,0,VALID,22.5892,VALID,104,VALID,0.252344,
2011-01-01, 01:03:04,VALID,997.246,VALID,0,VALID,90.5941,VALID,0,VALID,22.5696,VALID,104,VALID,0.391797,
2011-01-01, 01:04:04,VALID,997.213,VALID,0,VALID,90.5331,VALID,0,VALID,22.6087,VALID,104,VALID,0,
2011-01-01, 01:05:04,VALID,997.209,VALID,0,VALID,90.4949,VALID,0,VALID,22.6087,VALID,104,VALID,0,
2011-01-01, 01:06:04,VALID,997.189,VALID,0,VALID,90.4415,VALID,0,VALID,22.6087,VALID,104,VALID,0.280859,
2011-01-01, 01:07:04,VALID,997.183,VALID,0,VALID,90.35,VALID,0,VALID,22.5892,VALID,104,VALID,0.310937,
2011-01-01, 01:08:04,VALID,997.224,VALID,0,VALID,90.2431,VALID,0,VALID,22.6087,VALID,104,VALID,0.183203,
2011-01-01, 01:09:04,VALID,997.175,VALID,0,VALID,90.205,VALID,0,VALID,22.6299,VALID,104,VALID,0.259375,
2011-01-01, 01:10:04,VALID,997.175,VALID,0,VALID,90.1897,VALID,0,VALID,22.6477,VALID,104,VALID,0.250781,
2011-01-01, 01:11:04,VALID,997.164,VALID,0,VALID,90.1897,VALID,0,VALID,22.6477,VALID,104,VALID,0.266797,
2011-01-01, 01:12:04,VALID,997.162,VALID,0,VALID,90.1516,VALID,0,VALID,22.6477,VALID,104,VALID,0.372266,
2011-01-01, 01:13:04,VALID,997.126,VALID,0,VALID,90.0295,VALID,0,VALID,22.6477,VALID,104,VALID,0.276563,
2011-01-01, 01:14:04,VALID,997.107,VALID,0,VALID,90.0982,VALID,0,VALID,22.6867,VALID,104,VALID,0.273828,
2011-01-01, 01:15:04,VALID,997.105,VALID,0,VALID,90.1287,VALID,0,VALID,22.6867,VALID,104,VALID,0.318359,
2011-01-01, 01:16:04,VALID,997.117,VALID,0,VALID,90.0753,VALID,0,VALID,22.6867,VALID,104,VALID,0.015625,
2011-01-01, 01:17:04,VALID,997.077,VALID,0,VALID,90.0982,VALID,0,VALID,22.7062,VALID,104,VALID,0.236719,
2011-01-01, 01:18:04,VALID,997.077,VALID,0,VALID,90.0219,VALID,0,VALID,22.7257,VALID,104,VALID,0.314844,
2011-01-01, 01:19:04,VALID,997.078,VALID,0,VALID,89.8922,VALID,0,VALID,22.7062,VALID,104,VALID,0.2375,
2011-01-01, 01:20:04,VALID,997.073,VALID,0,VALID,89.8235,VALID,0,VALID,22.7257,VALID,104,VALID,0.101172,
2011-01-01, 01:21:04,VALID,997.07,VALID,0,VALID,89.7625,VALID,0,VALID,22.7257,VALID,104,VALID,0.142969,
2011-01-01, 01:22:04,VALID,997.07,VALID,0,VALID,89.8159,VALID,0,VALID,22.7452,VALID,104,VALID,0.198828,
2011-01-01, 01:23:04,VALID,997.063,VALID,0,VALID,89.8617,VALID,0,VALID,22.7452,VALID,104,VALID,0.156641,
2011-01-01, 01:24:04,VALID,997.033,VALID,0,VALID,89.9151,VALID,0,VALID,22.7452,VALID,104,VALID,0.288281,
2011-01-01, 01:25:04,VALID,997.01,VALID,0,VALID,89.9914,VALID,0,VALID,22.7469,VALID,104,VALID,0.458984,
2011-01-01, 01:26:04,VALID,997.009,VALID,0,VALID,90.0753,VALID,0,VALID,22.724,VALID,104,VALID,0.498437,
2011-01-01, 01:27:04,VALID,997.006,VALID,0,VALID,90.1974,VALID,0,VALID,22.724,VALID,61,VALID,0.573047,
2011-01-01, 01:28:04,VALID,996.993,VALID,0,VALID,90.2966,VALID,0,VALID,22.7257,VALID,35,VALID,0.664844,
2011-01-01, 01:29:04,VALID,996.973,VALID,0,VALID,90.3881,VALID,0,VALID,22.7045,VALID,26,VALID,0.672266,
2011-01-01, 01:30:04,VALID,996.981,VALID,0,VALID,90.5102,VALID,0,VALID,22.685,VALID,14,VALID,0.629297,
2011-01-01, 01:31:04,VALID,996.953,VALID,0,VALID,90.5865,VALID,0,VALID,22.685,VALID,14,VALID,0.408203,
2011-01-01, 01:32:04,VALID,997,VALID,0,VALID,90.6704,VALID,0,VALID,22.6655,VALID,14,VALID,0.203906,
2011-01-01, 01:33:04,VALID,996.934,VALID,0,VALID,90.823,VALID,0,VALID,22.685,VALID,14,VALID,0.213672,
2011-01-01, 01:34:04,VALID,996.984,VALID,0,VALID,90.9222,VALID,0.112286,VALID,22.6655,VALID,14,VALID,0.367969,
2011-01-01, 01:35:04,VALID,996.948,VALID,0,VALID,90.9832,VALID,0,VALID,22.6672,VALID,14,VALID,0.296094,
2011-01-01, 01:36:04,VALID,996.948,VALID,0,VALID,91.0366,VALID,0,VALID,22.646,VALID,14,VALID,0.0316406,
2011-01-01, 01:37:04,VALID,996.945,VALID,0,VALID,91.0824,VALID,0.112286,VALID,22.646,VALID,14,VALID,0,
2011-01-01, 01:38:04,VALID,996.926,VALID,0,VALID,91.1358,VALID,0,VALID,22.646,VALID,14,VALID,0,
2011-01-01, 01:39:04,VALID,996.909,VALID,0,VALID,91.1968,VALID,0,VALID,22.6282,VALID,14,VALID,0,
2011-01-01, 01:40:04,VALID,996.924,VALID,0,VALID,91.2426,VALID,0,VALID,22.6264,VALID,14,VALID,0,
2011-01-01, 01:41:04,VALID,996.924,VALID,0,VALID,91.3189,VALID,0,VALID,22.6282,VALID,14,VALID,0,
2011-01-01, 01:42:04,VALID,996.889,VALID,0,VALID,91.3647,VALID,0,VALID,22.6282,VALID,14,VALID,0,
2011-01-01, 01:43:04,VALID,996.861,VALID,0,VALID,91.3876,VALID,0,VALID,22.6087,VALID,14,VALID,0,
2011-01-01, 01:44:04,VALID,996.858,VALID,0,VALID,91.4486,VALID,0,VALID,22.6299,VALID,14,VALID,0,
2011-01-01, 01:45:04,VALID,996.843,VALID,0,VALID,91.4791,VALID,0,VALID,22.5892,VALID,14,VALID,0,
2011-01-01, 01:46:04,VALID,996.827,VALID,0,VALID,91.5249,VALID,0,VALID,22.6087,VALID,14,VALID,0,
2011-01-01, 01:47:04,VALID,996.81,VALID,0,VALID,91.5936,VALID,0,VALID,22.6087,VALID,14,VALID,0,
2011-01-01, 01:48:04,VALID,996.81,VALID,0,VALID,91.6165,VALID,0,VALID,22.6087,VALID,14,VALID,0,
2011-01-01, 01:49:04,VALID,996.756,VALID,0,VALID,91.6241,VALID,0,VALID,22.5892,VALID,14,VALID,0,
2011-01-01, 01:50:04,VALID,996.775,VALID,0,VALID,91.6088,VALID,0,VALID,22.5892,VALID,14,VALID,0.00546875,
2011-01-01, 01:51:04,VALID,996.759,VALID,0,VALID,91.6088,VALID,0,VALID,22.6104,VALID,14,VALID,0,
2011-01-01, 01:52:04,VALID,996.77,VALID,0,VALID,91.5554,VALID,0,VALID,22.6104,VALID,14,VALID,0,
2011-01-01, 01:53:04,VALID,996.761,VALID,0,VALID,91.5249,VALID,0,VALID,22.6087,VALID,14,VALID,0,
2011-01-01, 01:54:04,VALID,996.741,VALID,0,VALID,91.4791,VALID,0,VALID,22.6087,VALID,14,VALID,0,
2011-01-01, 01:55:04,VALID,996.748,VALID,0,VALID,91.441,VALID,0,VALID,22.5892,VALID,14,VALID,0,
2011-01-01, 01:56:04,VALID,996.773,VALID,0,VALID,91.441,VALID,0,VALID,22.6087,VALID,14,VALID,0,
2011-01-01, 01:57:04,VALID,996.75,VALID,0,VALID,91.4334,VALID,0,VALID,22.6087,VALID,14,VALID,0,
2011-01-01, 01:58:04,VALID,996.75,VALID,0,VALID,91.4639,VALID,0,VALID,22.6282,VALID,14,VALID,0.152344,
2011-01-01, 01:59:04,VALID,996.768,VALID,0,VALID,91.5326,VALID,0,VALID,22.6477,VALID,14,VALID,0,
2011-01-01, 02:00:04,VALID,996.767,VALID,0,VALID,91.5249,VALID,0,VALID,22.6477,VALID,14,VALID,0,
2011-01-01, 02:01:04,VALID,996.744,VALID,0,VALID,91.5326,VALID,0,VALID,22.6282,VALID,14,VALID,0,
2011-01-01, 02:02:04,VALID,996.724,VALID,0,VALID,91.5631,VALID,0,VALID,22.6477,VALID,14,VALID,0.329297,
2011-01-01, 02:03:04,VALID,996.726,VALID,0,VALID,91.5326,VALID,0,VALID,22.6477,VALID,14,VALID,0.406641,
2011-01-01, 02:04:04,VALID,996.725,VALID,0,VALID,91.502,VALID,0,VALID,22.6477,VALID,14,VALID,0.497266,
2011-01-01, 02:05:04,VALID,996.713,VALID,0,VALID,91.4868,VALID,0,VALID,22.6672,VALID,14,VALID,0.412891,
2011-01-01, 02:06:04,VALID,996.732,VALID,0,VALID,91.502,VALID,0,VALID,22.6867,VALID,14,VALID,0.345703,
2011-01-01, 02:07:04,VALID,996.689,VALID,0,VALID,91.5097,VALID,0,VALID,22.7062,VALID,14,VALID,0.269922,
2011-01-01, 02:08:04,VALID,996.695,VALID,0,VALID,91.4868,VALID,0,VALID,22.7062,VALID,14,VALID,0.258984,
2011-01-01, 02:09:04,VALID,996.695,VALID,0,VALID,91.5097,VALID,0,VALID,22.6867,VALID,14,VALID,0.0367187,
2011-01-01, 02:10:04,VALID,996.681,VALID,0,VALID,91.5249,VALID,0,VALID,22.7062,VALID,14,VALID,0,
2011-01-01, 02:11:04,VALID,996.668,VALID,0,VALID,91.5173,VALID,0,VALID,22.6867,VALID,14,VALID,0,
2011-01-01, 02:12:04,VALID,996.682,VALID,0,VALID,91.502,VALID,0,VALID,22.6477,VALID,14,VALID,0,
2011-01-01, 02:13:04,VALID,996.671,VALID,0,VALID,91.4791,VALID,0,VALID,22.6477,VALID,14,VALID,0,
2011-01-01, 02:14:04,VALID,996.67,VALID,0,VALID,91.441,VALID,0,VALID,22.6477,VALID,14,VALID,0,
2011-01-01, 02:15:04,VALID,996.683,VALID,0,VALID,91.4181,VALID,0,VALID,22.6494,VALID,14,VALID,0,
2011-01-01, 02:16:04,VALID,996.709,VALID,0,VALID,91.3723,VALID,0,VALID,22.6282,VALID,14,VALID,0,
2011-01-01, 02:17:04,VALID,996.681,VALID,0,VALID,91.38,VALID,0,VALID,22.6282,VALID,14,VALID,0,
2011-01-01, 02:18:04,VALID,996.657,VALID,0,VALID,91.3418,VALID,0,VALID,22.6282,VALID,14,VALID,0,
2011-01-01, 02:19:04,VALID,996.661,VALID,0,VALID,91.3189,VALID,0,VALID,22.6087,VALID,14,VALID,0,
2011-01-01, 02:20:04,VALID,996.688,VALID,0,VALID,91.2731,VALID,0,VALID,22.6087,VALID,14,VALID,0,
2011-01-01, 02:21:04,VALID,996.627,VALID,0,VALID,91.2579,VALID,0,VALID,22.6087,VALID,14,VALID,0,
2011-01-01, 02:22:04,VALID,996.649,VALID,0,VALID,91.296,VALID,0,VALID,22.6282,VALID,14,VALID,0,
2011-01-01, 02:23:04,VALID,996.623,VALID,0,VALID,91.3342,VALID,0,VALID,22.6282,VALID,14,VALID,0,
2011-01-01, 02:24:04,VALID,996.617,VALID,0,VALID,91.3723,VALID,0,VALID,22.6282,VALID,14,VALID,0,
2011-01-01, 02:25:04,VALID,996.614,VALID,0,VALID,91.4257,VALID,0,VALID,22.6282,VALID,14,VALID,0,
2011-01-01, 02:26:04,VALID,996.58,VALID,0,VALID,91.4791,VALID,0,VALID,22.6282,VALID,14,VALID,0,
2011-01-01, 02:27:04,VALID,996.568,VALID,0,VALID,91.5173,VALID,0,VALID,22.6282,VALID,14,VALID,0,
2011-01-01, 02:28:04,VALID,996.577,VALID,0,VALID,91.5707,VALID,0,VALID,22.6282,VALID,14,VALID,0,
2011-01-01, 02:29:04,VALID,996.566,VALID,0,VALID,91.5936,VALID,0,VALID,22.6477,VALID,14,VALID,0,
2011-01-01, 02:30:04,VALID,996.588,VALID,0,VALID,91.5936,VALID,0,VALID,22.6477,VALID,14,VALID,0,
2011-01-01, 02:31:04,VALID,996.572,VALID,0,VALID,91.6012,VALID,0,VALID,22.6672,VALID,14,VALID,0,
2011-01-01, 02:32:04,VALID,996.61,VALID,0,VALID,91.5936,VALID,0,VALID,22.6477,VALID,14,VALID,0,
2011-01-01, 02:33:04,VALID,996.607,VALID,0,VALID,91.586,VALID,0,VALID,22.6672,VALID,14,VALID,0,
2011-01-01, 02:34:04,VALID,996.611,VALID,0,VALID,91.586,VALID,0,VALID,22.6672,VALID,14,VALID,0,
2011-01-01, 02:35:04,VALID,996.636,VALID,0,VALID,91.6165,VALID,0,VALID,22.6672,VALID,14,VALID,0,
2011-01-01, 02:36:04,VALID,996.601,VALID,0,VALID,91.6241,VALID,0,VALID,22.6672,VALID,14,VALID,0,
2011-01-01, 02:37:04,VALID,996.633,VALID,0,VALID,91.6317,VALID,0,VALID,22.6672,VALID,39,VALID,0.794531,
2011-01-01, 02:38:04,VALID,996.633,VALID,0,VALID,91.6394,VALID,0,VALID,22.6672,VALID,39,VALID,0.845703,
2011-01-01, 02:39:04,VALID,996.615,VALID,0,VALID,91.6546,VALID,0,VALID,22.6672,VALID,39,VALID,1.02461,
2011-01-01, 02:40:04,VALID,996.628,VALID,0,VALID,91.6394,VALID,0,VALID,22.6672,VALID,37,VALID,1.06367,
2011-01-01, 02:41:04,VALID,996.609,VALID,0,VALID,91.647,VALID,0,VALID,22.6477,VALID,34,VALID,1.07656,
2011-01-01, 02:42:04,VALID,996.633,VALID,0,VALID,91.6241,VALID,0,VALID,22.6282,VALID,30,VALID,0.921484,
2011-01-01, 02:43:04,VALID,996.623,VALID,0,VALID,91.6165,VALID,0,VALID,22.6087,VALID,30,VALID,1.12891,
2011-01-01, 02:44:04,VALID,996.595,VALID,0,VALID,91.6088,VALID,0,VALID,22.5892,VALID,25,VALID,1.25156,
2011-01-01, 02:45:04,VALID,996.591,VALID,0,VALID,91.6165,VALID,0,VALID,22.5892,VALID,24,VALID,0.901563,
2011-01-01, 02:46:04,VALID,996.606,VALID,0,VALID,91.6012,VALID,0,VALID,22.5501,VALID,26,VALID,1.19648,
2011-01-01, 02:47:04,VALID,996.583,VALID,0,VALID,91.5783,VALID,0,VALID,22.5501,VALID,34,VALID,1.01289,
2011-01-01, 02:48:04,VALID,996.628,VALID,0,VALID,91.6012,VALID,0,VALID,22.5519,VALID,34,VALID,0.7375,
2011-01-01, 02:49:04,VALID,996.621,VALID,0,VALID,91.5631,VALID,0,VALID,22.5111,VALID,33,VALID,0.832031,
2011-01-01, 02:50:04,VALID,996.597,VALID,0,VALID,91.586,VALID,0,VALID,22.5111,VALID,26,VALID,0.534766,
2011-01-01, 02:51:04,VALID,996.607,VALID,0,VALID,91.5936,VALID,0,VALID,22.5111,VALID,26,VALID,0.595312,
2011-01-01, 02:52:04,VALID,996.612,VALID,0,VALID,91.6241,VALID,0,VALID,22.5111,VALID,26,VALID,0.602734,
2011-01-01, 02:53:04,VALID,996.588,VALID,0,VALID,91.647,VALID,0,VALID,22.5111,VALID,26,VALID,0.717188,
2011-01-01, 02:54:04,VALID,996.608,VALID,0,VALID,91.6623,VALID,0,VALID,22.5128,VALID,26,VALID,0.607422,
2011-01-01, 02:55:04,VALID,996.601,VALID,0,VALID,91.6546,VALID,0,VALID,22.5111,VALID,26,VALID,0.6875,
2011-01-01, 02:56:04,VALID,996.609,VALID,0,VALID,91.6623,VALID,0,VALID,22.4916,VALID,26,VALID,0.744531,
2011-01-01, 02:57:04,VALID,996.602,VALID,0,VALID,91.6546,VALID,0,VALID,22.4916,VALID,26,VALID,0.841797,
2011-01-01, 02:58:04,VALID,996.595,VALID,0,VALID,91.6317,VALID,0,VALID,22.4721,VALID,26,VALID,0.935156,
2011-01-01, 02:59:04,VALID,996.607,VALID,0,VALID,91.5478,VALID,0,VALID,22.4916,VALID,26,VALID,0.764453,
2011-01-01, 03:00:04,VALID,996.581,VALID,0,VALID,91.5097,VALID,0,VALID,22.4721,VALID,26,VALID,0.844922,
2011-01-01, 03:01:04,VALID,996.577,VALID,0,VALID,91.4791,VALID,0,VALID,22.4721,VALID,26,VALID,0.789453,
2011-01-01, 03:02:04,VALID,996.565,VALID,0,VALID,91.441,VALID,0,VALID,22.4916,VALID,26,VALID,0.651172,
2011-01-01, 03:03:04,VALID,996.579,VALID,0,VALID,91.4105,VALID,0,VALID,22.4916,VALID,26,VALID,0.489844,
2011-01-01, 03:04:04,VALID,996.571,VALID,0,VALID,91.3571,VALID,0,VALID,22.4916,VALID,26,VALID,0.385156,
2011-01-01, 03:05:04,VALID,996.589,VALID,0,VALID,91.3342,VALID,0,VALID,22.4916,VALID,26,VALID,0.391406,
2011-01-01, 03:06:04,VALID,996.554,VALID,0,VALID,91.3266,VALID,0,VALID,22.4916,VALID,26,VALID,0.444141,
2011-01-01, 03:07:04,VALID,996.539,VALID,0,VALID,91.3037,VALID,0,VALID,22.4721,VALID,26,VALID,0.306641,
2011-01-01, 03:08:04,VALID,996.536,VALID,0,VALID,91.3113,VALID,0,VALID,22.4721,VALID,26,VALID,0.271484,
2011-01-01, 03:09:04,VALID,996.5,VALID,0,VALID,91.3494,VALID,0,VALID,22.4916,VALID,26,VALID,0.330859,
2011-01-01, 03:10:04,VALID,996.497,VALID,0,VALID,91.4028,VALID,0,VALID,22.4916,VALID,26,VALID,0.492969,
2011-01-01, 03:11:04,VALID,996.506,VALID,0,VALID,91.4486,VALID,0,VALID,22.5111,VALID,26,VALID,0.553906,
2011-01-01, 03:12:04,VALID,996.497,VALID,0,VALID,91.502,VALID,0,VALID,22.5111,VALID,26,VALID,0.435547,
2011-01-01, 03:13:04,VALID,996.487,VALID,0,VALID,91.4944,VALID,0,VALID,22.5111,VALID,26,VALID,0.536328,
2011-01-01, 03:14:04,VALID,996.507,VALID,0,VALID,91.5097,VALID,0,VALID,22.4899,VALID,26,VALID,0.401563,
2011-01-01, 03:15:04,VALID,996.488,VALID,0,VALID,91.5326,VALID,0,VALID,22.5306,VALID,26,VALID,0.361328,
2011-01-01, 03:16:04,VALID,996.527,VALID,0,VALID,91.5707,VALID,0,VALID,22.5094,VALID,26,VALID,0.523047,
2011-01-01, 03:17:04,VALID,996.535,VALID,0,VALID,91.5402,VALID,0,VALID,22.5111,VALID,49,VALID,0.701563,
2011-01-01, 03:18:04,VALID,996.487,VALID,0,VALID,91.5326,VALID,0,VALID,22.5111,VALID,51,VALID,0.841016,
2011-01-01, 03:19:04,VALID,996.55,VALID,0,VALID,91.502,VALID,0,VALID,22.5111,VALID,52,VALID,0.779688,
2011-01-01, 03:20:04,VALID,996.536,VALID,0,VALID,91.5097,VALID,0,VALID,22.5306,VALID,53,VALID,0.684375,
2011-01-01, 03:21:04,VALID,996.533,VALID,0,VALID,91.5173,VALID,0,VALID,22.5306,VALID,65,VALID,0.685547,
2011-01-01, 03:22:04,VALID,996.506,VALID,0,VALID,91.5707,VALID,0,VALID,22.5306,VALID,66,VALID,0.744922,
2011-01-01, 03:23:04,VALID,996.523,VALID,0,VALID,91.6012,VALID,0,VALID,22.4899,VALID,66,VALID,0.744141,
2011-01-01, 03:24:04,VALID,996.544,VALID,0,VALID,91.6165,VALID,0,VALID,22.5111,VALID,66,VALID,0.538672,
2011-01-01, 03:25:04,VALID,996.556,VALID,0,VALID,91.6241,VALID,0,VALID,22.5111,VALID,75,VALID,0.471484,
2011-01-01, 03:26:04,VALID,996.574,VALID,0,VALID,91.6623,VALID,0,VALID,22.5111,VALID,75,VALID,0.333594,
2011-01-01, 03:27:04,VALID,996.532,VALID,0,VALID,91.6928,VALID,0,VALID,22.5111,VALID,75,VALID,0.310156,
2011-01-01, 03:28:04,VALID,996.533,VALID,0,VALID,91.6928,VALID,0,VALID,22.4916,VALID,75,VALID,0.25,
2011-01-01, 03:29:04,VALID,996.528,VALID,0,VALID,91.708,VALID,0,VALID,22.4916,VALID,75,VALID,0.432031,
2011-01-01, 03:30:04,VALID,996.536,VALID,0,VALID,91.6623,VALID,0,VALID,22.4314,VALID,75,VALID,0.239453,
2011-01-01, 03:31:04,VALID,996.549,VALID,0,VALID,91.6317,VALID,0,VALID,22.4721,VALID,75,VALID,0.204297,
2011-01-01, 03:32:04,VALID,996.546,VALID,0,VALID,91.6012,VALID,0,VALID,22.4526,VALID,75,VALID,0.0308594,
2011-01-01, 03:33:04,VALID,996.523,VALID,0,VALID,91.586,VALID,0,VALID,22.4526,VALID,75,VALID,0.0832031,
2011-01-01, 03:34:04,VALID,996.527,VALID,0,VALID,91.5402,VALID,0,VALID,22.4526,VALID,75,VALID,0.451562,
2011-01-01, 03:35:04,VALID,996.532,VALID,0,VALID,91.4791,VALID,0,VALID,22.4721,VALID,75,VALID,0.444922,
2011-01-01, 03:36:04,VALID,996.524,VALID,0,VALID,91.4257,VALID,0,VALID,22.4721,VALID,75,VALID,0.446484,
2011-01-01, 03:37:04,VALID,996.533,VALID,0,VALID,91.3876,VALID,0,VALID,22.4721,VALID,75,VALID,0.397656,
2011-01-01, 03:38:04,VALID,996.548,VALID,0,VALID,91.3494,VALID,0,VALID,22.4916,VALID,95,VALID,0.389062,
2011-01-01, 03:39:05,VALID,996.518,VALID,0,VALID,91.3571,VALID,0,VALID,22.5111,VALID,95,VALID,0.470313,
2011-01-01, 03:40:05,VALID,996.539,VALID,0,VALID,91.38,VALID,0,VALID,22.5111,VALID,95,VALID,0.654297,
2011-01-01, 03:41:05,VALID,996.513,VALID,0,VALID,91.4105,VALID,0,VALID,22.5306,VALID,95,VALID,0.617578,
2011-01-01, 03:42:05,VALID,996.526,VALID,0,VALID,91.4715,VALID,0,VALID,22.5289,VALID,95,VALID,0.653125,
2011-01-01, 03:43:05,VALID,996.502,VALID,0,VALID,91.5402,VALID,0,VALID,22.5501,VALID,100,VALID,0.699219,
2011-01-01, 03:44:05,VALID,996.506,VALID,0,VALID,91.5478,VALID,0,VALID,22.5696,VALID,100,VALID,0.666406,
2011-01-01, 03:45:05,VALID,996.533,VALID,0,VALID,91.5936,VALID,0,VALID,22.5696,VALID,100,VALID,0.735547,
2011-01-01, 03:46:05,VALID,996.522,VALID,0,VALID,91.6165,VALID,0,VALID,22.5484,VALID,100,VALID,0.780469,
2011-01-01, 03:47:05,VALID,996.528,VALID,0,VALID,91.6546,VALID,0,VALID,22.5679,VALID,100,VALID,0.565234,
2011-01-01, 03:48:05,VALID,996.519,VALID,0,VALID,91.6775,VALID,0,VALID,22.5696,VALID,99,VALID,0.696875,
2011-01-01, 03:49:05,VALID,996.542,VALID,0,VALID,91.6546,VALID,0,VALID,22.5892,VALID,94,VALID,0.615234,